Location: Central Coast
(33.3208°S, 151.2336°E)
Time: 02:16:02
(UTC+11:00)

Tiangong 2 - Pass Details

Date: 15 October 2017
Orbit: 388 x 391 km, 42.8° (Epoch: 23 October)

Event Time Altitude Azimuth Distance (km) Brightness Sun altitude
Rises 21:29:25 0° 255° (WSW) 2,291 6.1 -28.1°
Reaches altitude 10° 21:31:56 10° 275° (W) 1,428 4.5 -28.6°
Enters shadow 21:32:03 11° 276° (W) 1,395 4.4 -28.6°
